Voltar ao catálogo

YZ-2 R/B

AtivoMEO
NORAD 41840·ROCKET BODY·🇨🇳 China

Lançado Nov 3, 2016 de Wenchang Space Launch Site

Loading…

Próximas Passagens (próximas 24 horas)

TLE

AtualizadoSource: Space-Track

Época: Sep 14, 2026, 05:21 UTC

1 41840U 16065C   26257.22322103 -.00000214  00000-0  00000-0 0  9990
2 41840   9.6044  65.5299 0461599 234.8102 120.9073  0.93474181 33681

Acompanhe YZ-2 R/B em tempo real com AllMySat

Download on the App Store